Leadville, CO

7:43 PM MDT on March 25, 2017 (GMT -0600)
Lake County

Weather History for KLXV - September, 2011

Change the Weather History Date:

Thursday, September 22, 2011

  Actual Average Record
Temperature  
Mean Temperature 43 °F -  
Max Temperature 61 °F 59 °F 68 °F (1987)
Min Temperature 25 °F 29 °F 21 °F (2004)
Degree Days  
Heating Degree Days 22 21  
Month to date heating degree days 412 396  
Since 1 July heating degree days 929 1118  
Cooling Degree Days 0 0  
Month to date cooling degree days 0 0  
Year to date cooling degree days 0 0  
Moisture  
Dew Point 21 °F    
Average Humidity 54    
Maximum Humidity 92    
Minimum Humidity 15    
Precipitation  
Precipitation 0.00 in 0.04 in 0.55 in (2006)
Month to date precipitation 1.42 0.85  
Year to date precipitation 12.19 9.80  
Snow  
Snow 0.00 in - - ()
Month to date snowfall 0.0  
Snow Depth 0.00 in    
Sea Level Pressure  
Sea Level Pressure 30.17 in    
Wind  
Wind Speed 6 mph (NE)    
Max Wind Speed 17 mph    
Max Gust Speed 22 mph    
Visibility 10 miles    
Events      
T = Trace of Precipitation, MM = Missing Value Source: NWS Daily Summary

Daily Weather History Graph

Daily Weather History Graph

Search for Another Location

Airport or City:

Trip Planner

Search our weather history database for the weather conditions in past years. The results will help you decide how hot, cold, wet, or windy it might be!

Date:

Astronomy

Sep. 22, 2011 Rise Set
Actual Time 6:52 AM MDT 7:02 PM MDT
Civil Twilight 6:26 AM MDT 7:29 PM MDT
Nautical Twilight 5:54 AM MDT 8:00 PM MDT
Astronomical Twilight 5:22 AM MDT 8:32 PM MDT
Moon 1:18 AM MDT (9/22) 3:55 PM MDT (9/22)
Length of Visible Light 13h 03m
Length of Day
12h 09m
Waning Crescent, 28% of the Moon is Illuminated
Sep 22
Waning Crescent
Sep 27
New
Oct 3
First Quarter
Oct 11
Full
Oct 19
Last Quarter

Hourly Weather History & Observations

Time (MDT) Temp. Windchill Dew Point Humidity Pressure Visibility Wind Dir Wind Speed Gust Speed Precip Events Conditions
12:53 AM 30.0 °F - 28.0 °F 92% 30.13 in 10.0 mi Calm Calm - N/A   Clear
1:53 AM 28.9 °F 21.9 °F 26.1 °F 89% 30.14 in 10.0 mi East 6.9 mph - N/A   Clear
2:53 AM 28.9 °F 21.1 °F 25.0 °F 85% 30.13 in 10.0 mi East 8.1 mph - N/A   Clear
3:53 AM 28.0 °F 22.8 °F 25.0 °F 88% 30.13 in 10.0 mi ENE 4.6 mph - N/A   Clear
4:53 AM 26.1 °F 19.4 °F 23.0 °F 88% 30.14 in 10.0 mi ENE 5.8 mph - N/A   Clear
5:53 AM 26.1 °F 21.9 °F 21.0 °F 81% 30.19 in 10.0 mi ENE 3.5 mph - N/A   Clear
6:53 AM 27.0 °F - 21.0 °F 78% 30.21 in 10.0 mi Calm Calm - N/A   Clear
7:53 AM 33.1 °F 28.7 °F 21.0 °F 61% 30.21 in 10.0 mi East 4.6 mph - N/A   Clear
8:53 AM 42.1 °F - 21.0 °F 43% 30.16 in 10.0 mi Calm Calm - N/A   Clear
9:53 AM 48.0 °F - 16.0 °F 28% 30.16 in 10.0 mi North 11.5 mph 19.6 mph N/A   Clear
10:53 AM 50.0 °F - 19.0 °F 29% 30.17 in 10.0 mi ENE 9.2 mph - N/A   Clear
11:53 AM 53.1 °F - 19.0 °F 26% 30.17 in 10.0 mi NNE 8.1 mph - N/A   Clear
12:53 PM 57.0 °F - 19.0 °F 23% 30.15 in 10.0 mi Variable 5.8 mph - N/A   Clear
1:53 PM 57.0 °F - 19.9 °F 24% 30.15 in 10.0 mi WNW 8.1 mph 17.3 mph N/A   Clear
2:53 PM 60.1 °F - 12.0 °F 15% 30.12 in 10.0 mi North 10.4 mph 19.6 mph N/A   Clear
3:53 PM 60.1 °F - 16.0 °F 18% 30.12 in 10.0 mi North 11.5 mph 19.6 mph N/A   Clear
4:53 PM 59.0 °F - 17.1 °F 20% 30.14 in 10.0 mi NW 13.8 mph 21.9 mph N/A   Clear
5:53 PM 57.9 °F - 19.9 °F 23% 30.17 in 10.0 mi NNW 12.7 mph - N/A   Clear
6:53 PM 54.0 °F - 21.9 °F 29% 30.20 in 10.0 mi NNE 10.4 mph - N/A   Clear
7:53 PM 48.0 °F - 24.1 °F 39% 30.22 in 10.0 mi Calm Calm - N/A   Clear
8:53 PM 48.0 °F - 24.1 °F 39% 30.18 in 10.0 mi Calm Calm - N/A   Clear
9:53 PM 37.0 °F 31.6 °F 23.0 °F 57% 30.21 in 10.0 mi East 6.9 mph - N/A   Clear
10:53 PM 37.9 °F - 25.0 °F 60% 30.21 in 10.0 mi Calm Calm - N/A   Clear
11:53 PM 36.0 °F 32.1 °F 24.1 °F 62% 30.20 in 10.0 mi ESE 4.6 mph - N/A   Clear